2017-008AY

Last updated on Fri Mar 10 2017 00:15:03 GMT+0000 (Coordinated Universal Time)

1 41994U 17008AY 17068.89016587 .00002196 00000-0 99780-4 0 9994 2 41994 97.5088 130.4826 0007932 172.2192 187.9141 15.21820082 2759
UTC large
Height (km)
Speed (km/s)
/
Latitude / Longitude
Inclination (degrees)
Orbital Period (minutes)
Azimuth
Elevation
Range (km)
Doppler Factor

Next 0 passes for location: London (51.5072 / 0.1276)

Sorry there are no passes over London.
2017-008AY